EUTELSAT 8 WEST A

Last updated on Feb. 26, 2017, 12:17 a.m. UTC

1 26927U 01042A   17056.16576197 -.00000111  00000-0  00000+0 0  9997
2 26927   0.0608 334.2122 0006770 358.0595 230.1093  1.00272400 56447
UTC
Height (km)
Latitude
Longitude
Inclination
Orbital Period
UTC large
Height (km)
Speed (km/s)
/
Latitude / Longitude
Inclination (degrees)
Orbital Period (minutes)
Azimuth
Elevation
Range (km)
Doppler Factor
iOS Compass Heading
iOS Angle

Next 30 passes for location: Hong Kong

Rise time Rise Azimuth (degrees) Set time Set Azimuth (degrees) Duration Max altitude (degrees)

No matching passes for this satellites